Location: Unspecified
(40.7945°N, 0.0000°E)
Time: 13:43:10
(UTC+00:00)

Transit 4A - All Passes

Search period start: 23 January 2021 00:00
Search period end: 02 February 2021 00:00
Orbit: 864 x 980 km, 66.8° (Epoch: 23 January)

Date Brightness Start Highest point End Pass type
(mag) Time Alt. Az. Time Alt. Az. Time Alt. Az.
23 Jan - 02:25:01 10° N 02:28:51 17° NE 02:32:38 10° ENE visible
23 Jan - 04:10:07 10° NNW 04:16:19 77° ENE 04:22:17 10° SE visible
23 Jan - 05:58:17 10° WNW 06:01:52 16° WSW 06:05:24 10° SW visible
23 Jan - 17:32:29 10° SE 17:36:34 18° ESE 17:40:40 10° ENE visible
23 Jan - 19:15:50 10° SW 19:22:13 77° WNW 19:28:39 10° NNE visible
23 Jan - 21:05:33 10° W 21:09:41 17° NW 21:13:48 10° N visible
24 Jan - 02:33:51 10° N 02:38:36 22° NE 02:43:13 10° E visible
24 Jan - 04:19:28 10° NNW 04:25:37 74° WSW 04:31:33 10° SSE visible
24 Jan - 17:40:23 10° SSE 17:45:37 27° ESE 17:50:51 10° NE visible
24 Jan - 19:25:23 10° SW 19:31:38 54° NW 19:37:53 10° NNE visible
24 Jan - 21:16:37 10° WNW 21:19:31 13° NNW 21:22:24 10° N visible
25 Jan - 02:42:51 10° NNW 02:48:14 30° NE 02:53:27 10° ESE visible
25 Jan - 04:28:57 10° NW 04:34:50 49° WSW 04:40:32 10° S visible
25 Jan - 17:48:51 10° S 17:54:44 40° ESE 18:00:38 10° NE visible
25 Jan - 19:35:11 10° WSW 19:41:07 38° NW 19:47:02 10° NNE visible
26 Jan - 01:08:38 10° NNE 01:09:35 10° NNE 01:10:32 10° NE night (unlit)
26 Jan - 02:51:56 10° NNW 02:57:47 42° NE 03:03:25 10° ESE visible
26 Jan - 04:38:37 10° NW 04:43:58 33° WSW 04:49:10 10° S visible
26 Jan - 17:57:39 10° SSW 18:03:55 59° ESE 18:10:12 10° NE visible
26 Jan - 19:45:17 10° WSW 19:50:42 28° NW 19:56:06 10° NNE visible
27 Jan - 01:16:26 10° N 01:19:29 14° NE 01:22:30 10° ENE night (unlit)
27 Jan - 03:01:08 10° NNW 03:07:14 60° ENE 03:13:07 10° SE night (unlit)
27 Jan - 04:48:34 10° WNW 04:53:02 22° WSW 04:57:24 10° SSW visible
27 Jan - 16:24:53 10° SE 16:27:45 13° E 16:30:38 10° ENE daylight
27 Jan - 18:06:46 10° SSW 18:13:11 86° ESE 18:19:36 10° NNE visible
27 Jan - 19:55:39 10° W 20:00:22 21° NW 20:05:04 10° N visible
28 Jan - 01:25:06 10° N 01:29:17 18° NE 01:33:23 10° E night (unlit)
28 Jan - 03:10:24 10° NNW 03:16:36 87° ENE 03:22:33 10° SSE night (unlit)
28 Jan - 04:59:11 10° WNW 05:02:01 14° WSW 05:04:49 10° SW night (unlit)
28 Jan - 16:32:10 10° SSE 16:36:45 21° ESE 16:41:19 10° ENE daylight
28 Jan - 18:16:10 10° SW 18:22:32 68° WNW 18:28:54 10° NNE visible
28 Jan - 20:06:24 10° WNW 20:10:08 16° NW 20:13:50 10° N visible
29 Jan - 01:34:00 10° N 01:38:59 25° NE 01:43:50 10° E night (unlit)
29 Jan - 03:19:48 10° NW 03:25:51 64° WSW 03:31:43 10° SSE night (unlit)
29 Jan - 16:40:19 10° SSE 16:45:49 31° ESE 16:51:19 10° NE daylight
29 Jan - 18:25:49 10° SW 18:31:58 48° NW 18:38:07 10° NNE visible
29 Jan - 20:17:43 10° NW 20:20:00 12° NNW 20:22:15 10° N visible
30 Jan - 01:43:02 10° NNW 01:48:36 34° NE 01:53:59 10° ESE night (unlit)
30 Jan - 03:29:20 10° NW 03:35:03 43° WSW 03:40:35 10° S night (unlit)
30 Jan - 16:48:54 10° S 16:54:57 46° ESE 17:01:01 10° NE daylight
30 Jan - 18:35:43 10° WSW 18:41:29 34° NW 18:47:14 10° NNE visible
31 Jan - 00:08:09 10° NNE 00:10:05 11° NNE 00:11:59 10° NE night (unlit)
31 Jan - 01:52:10 10° NNW 01:58:06 48° NE 02:03:51 10° SE night (unlit)
31 Jan - 03:39:05 10° NW 03:44:09 28° WSW 03:49:05 10° SSW night (unlit)
31 Jan - 16:57:50 10° SSW 17:04:11 68° ESE 17:10:31 10° NE daylight
31 Jan - 18:45:54 10° W 18:51:05 25° NW 18:56:16 10° N visible
01 Feb - 00:16:28 10° N 00:19:56 15° NE 00:23:21 10° ENE night (unlit)
01 Feb - 02:01:23 10° NNW 02:07:32 69° ENE 02:13:26 10° SE night (unlit)
01 Feb - 03:49:12 10° WNW 03:53:11 18° WSW 03:57:05 10° SW night (unlit)
01 Feb - 15:24:16 10° SE 15:27:54 16° ESE 15:31:32 10° ENE daylight
01 Feb - 17:07:03 10° SSW 17:13:28 84° WNW 17:19:53 10° NNE daylight
01 Feb - 18:56:25 10° W 19:00:48 19° NW 19:05:09 10° N visible
